www.pogodaiklimat.ru

Погода и климат >> Архив погоды >> Россия >> Мордовия >> Темников


ПОГОДА в Темникове

  • Прогноз погоды в Темникове
  • Монитор погоды в Темникове
  • Климат города

АРХИВ ПОГОДЫ в Темникове

Время (UTC), дата Ветер
(напр.,м/с)
 
Видим.   Явления Облачность Т
(С)
Тd
(С)
f
(%)
Тe
(С)
Тes
(С)
Комфортность P
(гПа)
Po
(гПа)
Тmin
(С)
Tmax
(С)
R
(мм)
R24
(мм)
S
(см)
09 14.06 СЗ 3-6
{7}
20 км 6/3
[Cu hum Ci fib]
+15.3 +5.8 53 +15 +23 1014.8 998.3
12 14.06 СЗ 4-7
{8}
20 км 8/4 600 м
[Cu hum Ci fib]
+14.5 +5.0 53 +13 +17 1016.0 999.5
15 14.06 С 3-5
{8}
20 км 5/3 600 м
[Sc Ac trans Cs]
+13.9 +4.6 53 +13 +14 1016.7 1000.1 +15.8
18 14.06 С 1-1
{5}
20 км 3/0
[Ci fib]
+8.4 +5.0 79 +8 +8 1017.3 1000.4
21 14.06 штиль 0
{2}
10 км 4/0
[Ac trans Ci fib]
+6.1 +4.5 89 +5 +5 1018.2 1001.1
00 15.06 С 1-2
{3}
4000 м дымка 5/3 600 м
[Sc Ac trans]
+6.4 +5.3 93 +5 +5 1018.9 1001.9
03 15.06 СВ 1-3
{3}
20 км 8/6 600 м
[Sc Ac trans]
+8.5 +5.5 81 +8 +9 1019.6 1002.6 +5.5
06 15.06 СВ 4-7
{9}
20 км 5/1 600 м
[Cu hum Ac trans Ci fib]
+15.0 +1.9 41 +14 +19 1020.0 1003.4
09 15.06 СВ 3-6
{8}
20 км 6/3 600 м
[Cu hum Ac trans Ci fib]
+16.5 +1.1 35 +16 +24 1019.7 1003.2
12 15.06 СВ 2-5
{8}
20 км 4/1 600 м
[Cu hum Ac trans Ci fib]
+18.4 +0.9 31 +19 +27 1019.5 1003.1
15 15.06 СВ 3-7
{8}
20 км 3/0
[Ac trans Ci fib]
+18.1 +1.7 33 +18 +20 1019.1 1002.6 +18.7
18 15.06 СВ 1-2
{7}
20 км ясно +12.2 +3.8 56 +12 +12 1019.7 1003.0
21 15.06 СЗ 1-1
{2}
10 км ясно +5.5 +3.6 88 +4 +4 1020.9 1003.7
00 16.06 штиль 0
{2}
10 км дымка 3/0
[Ci fib]
+3.8 +2.8 93 +3 +3 1024.3 1004.3
03 16.06 штиль 0
{1}
4000 м дымка 8/4 600 м
[Sc Ac trans Ci fib]
+6.8 +5.9 94 +6 +7 1022.0 1004.9 +3.2
06 16.06 СЗ 2-4
{4}
20 км 8/0
[Cc]
+17.1 +5.3 46 +17 +26 1021.6 1005.1
09 16.06 СВ 2-5
{5}
20 км 8/6 600 м
[Cu hum Ac trans]
+20.7 +5.6 37 +22 +27 комфорт 1020.3 1004.0
12 16.06 С 3-7
{7}
20 км 8/6 600 м
[Cu hum Ac trans]
+21.5 +4.6 33 +22 +24 комфорт 1019.6 1003.3
15 16.06 С 2-4
{6}
20 км 6/5 600 м
[Cu hum Ac trans]
+20.2 +4.3 35 +21 +22 комфорт 1018.8 1002.5 +22.7
18 16.06 С 1-2
{5}
20 км 1/0
[Ci fib]
+14.3 +6.7 60 +15 +15 1019.7 1003.1
21 16.06 СЗ 1-1
{3}
10 км ясно +7.9 +5.0 82 +7 +7 1020.8 1003.7
00 17.06 штиль 0
{2}
4000 м дымка ясно +5.7 +4.5 92 +5 +5 1021.3 1004.1
03 17.06 штиль 0
{1}
10 км ясно +11.0 +8.8 86 +10 +13 1021.0 1004.2 +5.2
06 17.06 СЗ 2-5
{5}
20 км 3/0
[Ci fib]
+19.7 +5.8 40 +21 +31 комфорт 1020.5 1004.1
09 17.06 СВ 3-5
{8}
20 км 4/0
[Cs]
+23.1 +5.1 31 +23 +36 комфорт 1019.0 1002.8
12 17.06 СЗ 3-5
{7}
20 км 4/0
[Ac trans Ci fib]
+23.3 +5.8 32 +24 +32 комфорт 1017.7 1001.6
15 17.06 СЗ 3-5
{7}
20 км 5/0
[Ac As Ci fib]
+23.4 +6.2 33 +24 +25 комфорт 1016.7 1000.6 +25.3
18 17.06 СЗ 2-3
{5}
20 км 3/3 600 м
[Cu hum Ac trans Ci fib]
+17.9 +9.5 58 +18 +18 1016.9 1000.6
21 17.06 СЗ 2-3
{4}
10 км 3/0
[Cs]
+15.8 +8.1 60 +16 +16 1016.7 1000.3
00 18.06 СЗ 2-4
{4}
20 км 3/0
[Ac trans]
+14.0 +8.4 69 +14 +14 1016.9 1000.4
03 18.06 СЗ 1-2
{4}
20 км 3/0
[Ac trans]
+16.4 +9.9 65 +17 +19 1016.6 1000.2 +12.8
06 18.06 СЗ 2-3
{4}
20 км ясно +23.0 +12.9 53 +26 +36 жарко 1015.8 999.7
09 18.06 СЗ 2-5
{7}
20 км 6/6 600 м
[Cu med, cong]
+26.9 +10.2 35 +27 +34 жарко 1014.7 998.8
12 18.06 СВ 1-3
{6}
20 км 8/5 300 м
[Cb calv Ac trans Ci fib]
+26.9 +11.3 38 +28 +33 жарко 1014.3 998.4
15 18.06 С 3-6
{8}
20 км {ливн. осадки} 8/6 300 м
[Cb calv Ci fib]
+24.1 +11.1 44 +25 +26 комфорт 1013.6 997.6 +27.9 0.0
18 18.06 СЗ 1-2
{6}
20 км {ливн. осадки} 6/4 600 м
[Sc Ac trans]
+19.6 +12.1 62 +22 +22 комфорт 1013.8 997.6
21 18.06 З 1-2
{4}
10 км 3/0
[Ci fib]
+15.9 +13.2 84 +17 +17 1014.2 997.8
00 19.06 З 1-1
{2}
4000 м дымка 4/0
[Ac trans Ci fib]
+12.6 +11.7 94 +13 +13 1014.6 998.0
03 19.06 штиль 0
{2}
20 км 8/6 600 м
[Sc Ac trans]
+16.3 +14.2 87 +16 +17 1014.4 998.0 +12.1
06 19.06 З 1-2
{3}
20 км 8/3 600 м
[Sc Ac trans Ci fib]
+23.4 +13.8 55 +27 +33 душно 1013.7 997.7
09 19.06 СЗ 3-4
{5}
20 км 8/6 300 м
[Cb calv Ac trans]
+27.2 +10.9 36 +28 +32 жарко 1012.4 996.6
12 19.06 З 3-7
{9}
20 км 8/5 600 м
[Cu med, cong Ac trans Ci fib]
+28.6 +8.4 28 +28 +31 жарко 1011.0 995.3
15 19.06 З 3-6
{9}
20 км 8/4 600 м
[Cu med, cong Ci fib]
+26.6 +8.4 32 +27 +28 жарко 1009.9 994.1 +29.3
18 19.06 З 3-5
{7}
20 км 5/3 600 м
[Sc Ac trans Cs]
+23.9 +10.6 43 +25 +25 комфорт 1009.8 993.9
21 19.06 ЮЗ 2-3
{6}
10 км 4/3 600 м
[Sc Ac trans Ci fib]
+19.0 +12.8 67 +21 +21 комфорт 1009.7 993.5
00 20.06 ЮЗ 2-3
{5}
10 км 10/8 600 м
[Sc Ac trans Cs]
+17.9 +12.7 72 +18 +18 1007.8 991.7
03 20.06 ЮЗ 3-5
{6}
20 км 9/5 600 м
[Sc Ac As Cs]
+18.0 +13.0 73 +18 +19 1006.4 990.8 +17.1
06 20.06 ЮЗ 2-5
{7}
20 км 10/8 300 м
[Cb calv Ac trans]
+16.9 +15.1 89 +17 +18 1006.5 990.3 +16.6
09 20.06 З 5-10
{10}
20 км в посл. час дождь 6/3 300 м
[Cb calv Ac As Ci fib]
+22.5 +13.1 55 +25 +30 комфорт 1005.8 989.9
12 20.06 СЗ 5-10
{14}
20 км {дождь} 1/0
[Ci fib]
+22.7 +4.1 30 +23 +29 комфорт 1006.7 990.8
15 20.06 З 3-7
{11}
20 км 5/3 600 м
[Cu hum Ci fib]
+22.5 +3.4 29 +22 +24 комфорт 1006.8 990.9 +22.7 2
18 20.06 З 1-2
{10}
20 км 3/1 1000 м
[Cu hum Ci fib]
+17.0 +5.5 47 +18 +18 1008.2 992.0
21 20.06 З 2-3
{4}
10 км 4/3 600 м
[Sc diur, vesp Ac trans Ci fib]
+14.4 +5.3 54 +14 +14 1008.9 992.5
00 21.06 З 2-3
{6}
20 км 3/0
[Ci fib]
+13.0 +5.8 62 +12 +12 1010.2 993.6
03 21.06 З 3-5
{6}
20 км ясно +15.1 +5.8 54 +15 +16 1010.8 994.4 +11.1

 

Местоположение метеостанции Темников (Мордовия, Россия): широта 54.63 долгота 43.23 высота над уровнем моря 139 м.

В архиве по умолчанию представлена погода в Темникове за последнюю неделю. Архивные данные за месяц целиком и за предыдущие месяцы, начиная с января 2011 года, Вы можете получить, выбрав интересующий диапазон дат из раскрывающегося списка и нажав кнопку "Ввод!".


*Определитесь, кто Вы:
робот инопланетянин человек

Внимание! Время в таблицах - всемирное. Для получения местного времени необходимо прибавить поправку, которая в Темникове равна 3 ч.

Смотрите также архив погоды в соседних городах и на ближайших метеорологических станциях:

Погода в Краснослободске (Мордовия, Россия) (41 км)
Погода в Торбеево (Мордовия, Россия) (61 км)
Погода в Сасово (Рязанская область, Россия) (87 км)
Погода в Арзамасе (Нижегородская область, Россия) (89 км)
Погода в Лукоянове (Нижегородская область, Россия) (93 км)
Погода в Елатьме (Рязанская область, Россия) (100 км)
Погода в Выксе (Нижегородская область, Россия) (105 км)
Погода в Инсаре (Мордовия, Россия) (113 км)
Погода в Муроме (Владимирская область, Россия) (132 км)
Погода в Земетчино (Пензенская область, Россия) (134 км)

Пояснения к столбцам:

Ветер - указаны скорость ветра в м/с - средняя за 10 мин, порывы в срок и между сроками (в фигурных скобках) и направление, откуда дует ветер: С - северный, СВ - северо-восточный, В - восточный, ЮВ - юго-восточный, Ю - южный, ЮЗ - юго-западный, З - западный, СЗ - северо-западный.
Видимость - горизонтальная дальность видимости в метрах или километрах. При видимости от 1 до 10 км при отсутствии осадков обычно наблюдается дымка, при ухудшении видимости до 1 км и менее - туман. В сухую погоду видимость может ухудшаться дымом, пылью или мглою.
Явления - указаны атмосферные явления, наблюдавшиеся в срок или в последний час перед сроком; фигурными скобками обозначены явления, наблюдавшиеся между сроками (за 1-3 часа до срока); квадратными скобками обозначены град или гололедные отложения с указанием их диаметра в мм.
Облачность - указаны через наклонную черту общая и нижняя облачность в баллах и высота нижней границы облаков в метрах; квадратными скобками обозначены формы облаков: Ci - перистые, Cs - перисто-слоистые, Cc - перисто-кучевые, Ac - высококучевые, As - высокослоистые, Sc - слоисто-кучевые, Ns - слоисто-дождевые, Cu - кучевые, Cb - кучево-дождевые. Подробнее классификацию облаков см. в Атласе облаков (PDF).
T - Температура воздуха - температура, измеренная на высоте 2 м над землей.
Td - Температура точки росы - температура, при понижении до которой содержащийся в воздухе водяной пар достигнет насыщения.
f - Относительная влажность воздуха - влажноcть воздуха, измеренная на высоте 2 м над землей.
Te - Эффективная температура - температура, которую ощущает одетый по сезону человек в тени. Характеристика душности погоды. При расчете учитывается влияние влажности воздуха и скорости ветра на теплоощущения человека.
Tes - Эффективная температура на солнце - температура, которую ощущает человек, с поправкой на солнечный нагрев. Характеристика знойности погоды. Зависит от высоты солнца над горизонтом, облачности и скорости ветра. Ночью, в пасмурную погоду, а также при ветре 12 м/с и более поправка равна нулю.
P - Атмосферное давление - приведенное к уровню моря атмосферное давление.
Po - Атмосферное давление - измеренное на уровне метеостанции атмосферное давление.
Tmin - Минимальная температура - минимум температуры воздуха на высоте 2 м над землей.
Tmax - Максимальная температура - максимум температуры воздуха на высоте 2 м над землей.
R - Количество осадков - Количество выпавших осадков за период времени, мм. При наведении курсора мыши на число - период времени, за который выпало указанное количество осадков.
R24 - Количество осадков - Количество выпавших осадков за 24 часа, мм.
S - Снежный покров - Высота снежного покрова, см. При наведении курсора мыши на число - состояние снежного покрова и степень покрытия местности в баллах.